Flag for U.S.A. Weather past 2 weeks in Santa Cruz, California, U.S.A.

Now
72 °F

Sunny.


Feels Like: 77 °F
Forecast: 49 / 63 °F
Wind: 8 mph from South

Location: Watsonville Municipal Airport

Current Time: Mar 31, 2015 at 5:21:08 PM

Latest Report: Mar 31, 2015 at 4:53 PM


Visibility: 10 mi

Pressure: 30.09 "Hg

Humidity: 40%

Dew point: 46 °F

Location of Santa CruzLocation

Historic Weather in Santa Cruz — Graph

°F

Santa Cruz temperature yesterday

Maximum temperature yesterday: 70 °F (at 12:53 PM)
Minimum temperature yesterday: 46 °F (at 5:53 AM)
Average temperature yesterday: 58 °F

Past Weeks' High & Low Weather Summary

 TemperatureHumidityPressure
High85 °F (Mar 26, 1:53 PM)100% (Mar 23, 5:53 AM)30.31 "Hg (Mar 23, 5:53 AM)
Low46 °F (Mar 21, 6:53 AM)27% (Mar 26, 1:53 PM)29.96 "Hg (Mar 16, 5:53 PM)
Average60 °F75%30.13 "Hg
* Reported Mar 16 3:53 PM — Mar 31 3:53 PM, Santa Cruz, Weather by CustomWeather, © 2015

Note: Actual official high and low records may vary slightly from our data, if they occured in-between our weather recording intervals... More about our weather records

Advertising

Santa Cruz weather history for previous 24 hours

 ConditionsComfort  
Time TempWeatherWind HumidityBarometerVisibility
3:53 PM
Tue, Mar 31
72 °FSunny.7 mph43%30.11 "Hg10 mi
2:53 PM72 °FSunny.9 mph46%30.12 "Hg10 mi
1:53 PM70 °FSunny.7 mph53%30.15 "Hg10 mi
12:53 PM67 °FSunny.7 mph63%30.17 "Hg10 mi
11:53 AM66 °FSunny.7 mph65%30.18 "Hg10 mi
10:53 AM63 °FSunny.No wind68%30.19 "Hg10 mi
10:02 AM58 °FScattered clouds.No wind81%30.19 "Hg10 mi
9:53 AM56 °FPartly sunny.No wind87%30.19 "Hg10 mi
8:53 AM53 °FFog.No wind89%30.18 "Hg3 mi
7:53 AM51 °FFog.No wind96%30.16 "Hg1 mi
6:53 AM51 °FFog.No wind96%30.13 "Hg1 mi
5:53 AM50 °FFog.No wind93%30.12 "Hg1 mi
5:02 AM49 °FPassing clouds.No wind90%30.11 "Hg10 mi
4:53 AM49 °FPartly cloudy.No wind90%30.11 "Hg10 mi
3:53 AM51 °FClear.3 mph86%30.10 "Hg10 mi
2:53 AM51 °FClear.No wind86%30.11 "Hg10 mi
1:53 AM52 °FCool.3 mph86%30.11 "HgN/A
12:53 AM52 °FPassing clouds.No wind83%30.11 "Hg10 mi
11:53 PM
Mon, Mar 30
52 °FClear.No wind86%30.11 "Hg10 mi
10:53 PM54 °FClear.No wind83%30.11 "Hg10 mi
9:53 PM55 °FClear.3 mph83%30.10 "Hg10 mi
8:53 PM56 °FClear.6 mph81%30.08 "Hg10 mi
7:53 PM58 °FSunny.6 mph75%30.06 "Hg10 mi
6:53 PM60 °FSunny.7 mph72%30.04 "Hg10 mi
5:53 PM62 °FSunny.8 mph70%30.03 "Hg10 mi
Weather by CustomWeather, © 2015

See weather overviewHow to use our weather pages